Location: Newark
(45.5203°N, 11.3397°E)
Time: 11:19:10
(UTC+00:00)

OTV 5 (USA 277) - Visible Passes

Search period start: 23 October 2019 00:00
Search period end: 02 November 2019 00:00
Orbit: 310 x 324 km, 54.5° (Epoch: 17 October)

Date Brightness Start Highest point End Pass type
(mag) Time Alt. Az. Time Alt. Az. Time Alt. Az.
28 Oct ? 17:06:26 10° SSE 17:07:37 12° SE 17:07:46 12° SE visible
29 Oct ? 17:19:30 10° SSW 17:21:55 29° SE 17:22:16 28° ESE visible
30 Oct ? 17:33:39 10° SW 17:36:22 79° SE 17:36:39 67° E visible
31 Oct ? 17:48:21 10° WSW 17:50:56 42° NNW 17:50:56 42° NNW visible
01 Nov ? 16:28:36 10° SW 16:31:14 47° SE 16:33:54 10° ENE visible
01 Nov ? 18:03:23 10° W 18:05:08 22° NW 18:05:08 22° NW visible
